CZ-3A DEB, 35554

Orbit data source: Space-Track

CZ-3A DEB, 35554 is space debris in HEO originally from a launch on Fri, 02 Feb 2007 UTC launched from the Xichang Space Center, China (XSC). Debris objects in space refer to the collection of defunct objects orbiting the Earth. Examples of debris include non-operational satellites, rocket bodies, and fragments generated from explosions, collisions, or faulty payload assembly.

Not visible in the next 10 days
Identifier
35554, 2007-003N
Orbit
HEO
Country
Flag of CNCN / PRC
Related business
Manufacturer
Unknown
Mission
Spacecraft
Bus & Motor
Unknown
Mass
Unknown
Launch date (UTC)
2007-02-02 (19 years ago)
Launch vehicle
Unknown
Launch site
Xichang Space Center, China (XSC)
Object type
Payload
Rocket body
Debris
Shape & HBR
Unknown shape, 0.3 m
Radar Cross Section
Medium (>0.1 m² and <1 m²)

Expand to show TLE details & history
Last TLE update: 1 day ago

TLE from 1 day ago
0 CZ-3A DEB
1 35554U 07003N   25290.18130359 -.00000069  00000-0 -13318-2 0  9995
2 35554  24.3156 297.1165 7500843 167.0462 237.0561  1.86094784 82796
Epoch: 2025-10-17T04:21Z
TLE epoch observation values (Epoch: 2025-10-17T04:21:04.630Z)
Latitude
-0.0002°
Longitude
-154.07282°
Altitude
38,989.391 km
Speed
1.815 km/s
True Right ascension
19h 48m 30s
True Declination
0° 00' 01"
Sunlit
Object was in daylight at epoch
Visualization orbit readout
Latitude
Unknown
Longitude
Unknown
Altitude
Unknown
Speed
Unknown
Apparent Right ascension
Unknown
Apparent Declination
Unknown
Sunlit
N/A
Visualization observer readout
Local Sidereal Time
10:31:37
Azimuth
Unknown
Elevation
Unknown
Doppler factor
Unknown
Orbital elements
Apogee altitude
42,491.022 km
Perigee altitude
600.481 km
Semi-major axis
27,923.889 km
Eccentricity
0.75008
Inclination
24.3156°
RAAN
297.1165°
Arg. of periapsis
167.0462°
True anomaly
192.93591°
Mean anomaly
237.0561°
Eccentric anomaly
213.39894°
Mean motion
0.46514 °/min
Orbital period
773.97 mins
BSTAR
-0.0013318
Loading maneuver chart data...
Computing Atmospheric mass density...
Loading historical data...
Loading historical data...
Loading historical data...
Loading historical data...
Loading historical data...
Loading historical data...
Loading historical data...

Documentation

Showing up to 5 results
|